This is the latest recevied weather packets stored in our database for station/object EA8BQU-10. If no packets are shown the sender has not sent any weather packets the latest 10 day(s).
| Time | Temp. | Humidity | Pressure | Rain* | Wind** | Luminosity | Snow |
|---|---|---|---|---|---|---|---|
| 1777739447 | 22.22° C | 89% | 1018.5 hPa | - | - | - | - |
| 1777738547 | 22.78° C | 87% | 1018.5 hPa | - | - | - | - |
| 1777737647 | 22.78° C | 87% | 1018.8 hPa | - | - | - | - |
| 1777736747 | 22.78° C | 86% | 1018.7 hPa | - | - | - | - |
| 1777735846 | 22.78° C | 87% | 1018.8 hPa | - | - | - | - |
| 1777734946 | 23.33° C | 86% | 1018.9 hPa | - | - | - | - |
| 1777734046 | 22.78° C | 88% | 1019 hPa | - | - | - | - |
| 1777733146 | 22.78° C | 88% | 1019 hPa | - | - | - | - |
| 1777732246 | 22.78° C | 89% | 1019.2 hPa | - | - | - | - |
| 1777731346 | 22.78° C | 91% | 1019.3 hPa | - | - | - | - |
| 1777730446 | 22.22° C | 92% | 1019.4 hPa | - | - | - | - |
| 1777729546 | 22.22° C | 93% | 1019.4 hPa | - | - | - | - |
| 1777728646 | 22.22° C | 95% | 1019.3 hPa | - | - | - | - |
| 1777727746 | 21.67° C | 95% | 1019.5 hPa | - | - | - | - |
| 1777726845 | 21.67° C | 97% | 1019.7 hPa | - | - | - | - |
| 1777725944 | 21.11° C | 95% | 1019.8 hPa | - | - | - | - |
| 1777725044 | 21.11° C | 96% | 1020.1 hPa | - | - | - | - |
| 1777724143 | 21.11° C | 97% | 1020.2 hPa | - | - | - | - |
| 1777723243 | 20.56° C | 97% | 1020.1 hPa | - | - | - | - |
| 1777722343 | 20.56° C | 98% | 1020.4 hPa | - | - | - | - |
| 1777721446 | 20.56° C | 98% | 1020.3 hPa | - | - | - | - |
| 1777720546 | 21.11° C | 100% | 1020.4 hPa | - | - | - | - |
| 1777719646 | 21.11° C | 100% | 1020.5 hPa | - | - | - | - |
| 1777718745 | 20.56° C | 98% | 1020.4 hPa | - | - | - | - |
| 1777717845 | 20.56° C | 99% | 1020.5 hPa | - | - | - | - |
* Rain since midnight (hover to see other rain measurements)
** Current wind speed in m/s (hover to see current wind gust speed)